[[{"header":{"parameterUnit":"m.s-1","parameterCategory":1,"la1":30.2991,"la2":30.254,"lo1":-89.0895,"lo2":-89.0444,"dx":0.0017,"dy":0.0017,"nx":28,"ny":28,"refTime":"2022-12-07T03:00:00:Z","depth":0,"parameterNumber":2,"parameterNumberName":"U-component_of_WINDS"},"data":[0,0,0,0,0,0,0,0,0,0,0,0,0,0,0,0,0,0,0,0,0,0,0,0,0,0,0,0,0,0,0,0,0,0,0,0,0,0,0,0,0,0,0,0,0,0,0,0,0,0,0,0,0,0,0,0,0,0,-0.4888,-0.4888,0,-0.4888,-0.4888,-0.4888,-0.4818,-0.4816,-0.4814,-0.4812,-0.4811,-0.4813,-0.4815,0,0,0,0,0,0,0,0,0,0,0,0,0,-0.4827,-0.4828,-0.4888,-0.4888,-0.4888,-0.4888,-0.4888,-0.4888,-0.4818,-0.4816,-0.4814,-0.4812,-0.4811,-0.4813,-0.4815,0,0,0,0,0,0,0,0,0,0,0,0,0,-0.4843,-0.4829,-0.4888,-0.4853,-0.485,-0.4888,-0.4888,-0.4888,-0.4819,-0.4816,-0.4813,-0.4811,-0.481,-0.4813,-0.4815,-0.4886,0,0,-0.4823,-0.4824,0,0,0,0,0,0,0,0,-0.4842,-0.4845,-0.4858,-0.4856,-0.4852,-0.485,-0.4866,-0.4887,-0.4819,-0.4831,-0.4812,-0.4809,-0.4826,-0.4827,-0.4833,-0.4886,-0.4886,-0.4823,-0.4825,-0.4826,-0.4826,0,0,0,0,0,0,0,-0.4841,-0.4845,-0.4888,-0.4859,-0.4855,-0.4837,-0.4837,-0.487,-0.4844,-0.4829,-0.4824,-0.4825,-0.4824,-0.4831,-0.4833,-0.4886,-0.4823,-0.4825,-0.4827,-0.4828,-0.4997,-0.4999,0,0,0,0,0,0,-0.4845,-0.4844,-0.4888,-0.4888,-0.484,-0.4841,-0.484,-0.4853,-0.4843,-0.4839,-0.4828,-0.4822,-0.4828,-0.483,-0.4833,-0.4915,-0.4826,-0.4828,-0.483,-0.4994,-0.4997,-0.5,0,0,0,0,0,0,-0.4844,-0.4849,-0.4888,-0.4865,-0.4868,-0.4845,-0.4861,-0.4855,-0.4862,-0.4842,-0.4837,-0.484,-0.4826,-0.4829,-0.4873,-0.4914,-0.4829,-0.4831,-0.499,-0.4995,-0.4999,-0.5081,0,0,0,0,0,0,-0.4842,-0.4849,-0.4876,-0.4866,-0.487,-0.4929,-0.4863,-0.4857,-0.4866,-0.4859,-0.4852,-0.4848,-0.4824,-0.487,-0.4876,-0.4916,-0.4833,-0.4986,-0.4992,-0.4997,-0.5074,-0.5088,-0.5099,0,0,0,0,0,-0.484,-0.4899,-0.4878,-0.4884,-0.4903,-0.4931,-0.4934,-0.4905,-0.487,-0.4897,-0.4884,-0.4848,-0.4909,-0.4875,-0.4881,-0.4923,-0.4984,-0.4991,-0.4997,-0.5069,-0.5085,-0.5098,0,0,0,0,0,0,-0.4914,-0.4897,-0.4873,-0.493,-0.4933,-0.492,-0.4952,-0.4923,-0.4935,-0.4928,-0.4892,-0.4891,-0.4941,-0.4936,-0.4899,-0.4991,-0.494,-0.4948,-0.4992,-0.5008,-0.502,-0.502,-0.4836,0,0,0,0,0,-0.4937,-0.4962,-0.4945,-0.4997,-0.5,-0.4976,-0.4987,-0.4966,-0.4967,-0.4967,-0.4958,-0.496,-0.498,-0.4993,-0.501,-0.5073,-0.5071,-0.5105,-0.5117,-0.5127,-0.5135,-0.5169,-0.5184,-0.5022,-0.5022,-0.5022,0,0,-0.4984,-0.4978,-0.4996,-0.5012,-0.5011,-0.5038,-0.4977,-0.5008,-0.5027,-0.4972,-0.5013,-0.5007,-0.5007,-0.5061,-0.5084,-0.5058,-0.5179,-0.5136,-0.5144,-0.5146,-0.5177,-0.5192,-0.5206,-0.5027,-0.5026,-0.5025,0,0,-0.5085,-0.5082,-0.5126,-0.5127,-0.5127,-0.5111,-0.5121,-0.5113,-0.5106,-0.5147,-0.5106,-0.5129,-0.5163,-0.5165,-0.517,-0.5272,-0.524,-0.5279,-0.5343,-0.5376,-0.5389,-0.54,-0.5437,-0.5451,-0.5286,-0.5287,-0.5287,0,-0.5144,-0.5182,-0.5151,-0.5185,-0.5194,-0.5145,-0.5189,-0.5191,-0.5196,-0.5203,-0.5174,-0.5216,-0.5213,-0.5268,-0.5293,-0.5298,-0.5309,-0.528,-0.539,-0.54,-0.541,-0.5445,-0.5459,-0.5291,-0.5291,-0.529,-0.529,0,-0.5255,-0.5283,-0.5318,-0.5325,-0.5337,-0.5376,-0.5351,-0.5367,-0.5344,-0.5331,-0.5374,-0.5368,-0.5383,-0.5394,-0.5372,-0.5446,-0.543,-0.5396,-0.5344,-0.5431,-0.5463,-0.5476,-0.5298,-0.5296,-0.5295,-0.5294,0,0,-0.5402,-0.5392,-0.5405,-0.5409,-0.5406,-0.5426,-0.5463,-0.5478,-0.5493,-0.5498,-0.5528,-0.5558,-0.5527,-0.5533,-0.5511,-0.554,-0.5622,-0.5502,-0.5502,-0.5525,-0.5704,-0.5731,-0.5747,-0.5601,-0.5603,-0.5605,-0.5705,0,-0.5499,-0.5562,-0.5535,-0.56,-0.5625,-0.558,-0.5611,-0.5613,-0.5602,-0.5622,-0.5609,-0.5632,-0.5588,-0.5592,-0.5619,-0.5607,-0.5658,-0.5599,-0.5628,-0.563,-0.5631,-0.5763,-0.5791,-0.5885,-0.5717,-0.5719,-0.572,0,-0.5622,-0.5633,-0.5701,-0.5694,-0.5704,-0.5733,-0.5745,-0.5764,-0.5765,-0.5755,-0.5763,-0.5734,-0.5769,-0.5718,-0.5766,-0.5727,-0.5737,-0.5733,-0.5736,-0.5738,-0.5681,-0.577,-0.5914,-0.5929,-0.574,-0.5738,-0.5737,0,-0.5723,-0.5755,-0.58,-0.5804,-0.5797,-0.5818,-0.5816,-0.5815,-0.5826,-0.5836,-0.5843,-0.5858,-0.5866,-0.5878,-0.5854,-0.5818,-0.5906,-0.5852,-0.5898,-0.5899,-0.5919,-0.5918,-0.6069,-0.5925,-0.5925,-0.5925,-0.5924,0,-0.5835,-0.5878,-0.5845,-0.5873,-0.592,-0.5889,-0.5937,-0.5929,-0.5928,-0.5954,-0.5915,-0.594,-0.5906,-0.5927,-0.5908,-0.5952,-0.5955,-0.5949,-0.5943,-0.5952,-0.5954,-0.5959,-0.5952,-0.5928,-0.5928,-0.5927,-0.5926,0,-0.5956,-0.5935,-0.5981,-0.5971,-0.597,-0.6005,-0.5996,-0.6021,-0.6008,-0.6041,-0.6046,-0.6025,-0.6049,-0.6026,-0.6047,-0.6034,-0.6093,-0.6078,-0.6093,-0.6089,-0.6137,-0.6133,-0.6297,-0.6317,-0.616,-0.6162,-0.6163,0,-0.6029,-0.6061,-0.6055,-0.607,-0.607,-0.6094,-0.6106,-0.6076,-0.609,-0.6094,-0.6119,-0.6139,-0.6153,-0.6193,-0.6179,-0.6196,-0.6181,-0.6237,-0.6183,-0.6192,-0.6182,-0.6181,-0.6184,-0.6248,-0.625,-0.6251,-0.6253,0,-0.6161,-0.615,-0.6168,-0.6184,-0.6198,-0.6209,-0.6216,-0.623,-0.62,-0.6217,-0.6241,-0.6252,-0.6275,-0.6295,-0.6308,-0.6305,-0.6275,-0.627,-0.6281,-0.6292,-0.63,-0.6297,-0.6123,-0.6266,-0.6265,-0.6264,-0.6263,-0.6262,-0.6261,-0.6288,-0.6288,-0.631,-0.6313,-0.6321,-0.6344,-0.6334,-0.6353,-0.637,-0.6351,-0.638,-0.6381,-0.6394,-0.6396,-0.6418,-0.6394,-0.6411,-0.6416,-0.6421,-0.6428,-0.6296,-0.642,-0.642,-0.6419,-0.6419,-0.6419,0,-0.6392,-0.639,-0.641,-0.6422,-0.644,-0.6409,-0.6416,-0.6433,-0.6459,-0.6462,-0.6478,-0.6505,-0.6525,-0.6514,-0.6531,-0.6551,-0.6537,-0.6556,-0.6555,-0.6555,-0.6448,-0.6436,-0.6567,-0.6567,-0.6567,-0.6567,-0.6567,-0.6567,-0.6462,-0.6507,-0.6495,-0.6541,-0.6538,-0.6567,-0.6574,-0.6581,-0.6583,-0.6616,-0.6633,-0.6625,-0.6623,-0.6639,-0.6656,-0.6652,-0.6661,-0.6686,-0.6677,-0.6577,-0.6562,-0.6549,-0.6537,-0.6687,-0.6688,-0.6782,-0.6783,-0.6783]},{"header":{"parameterUnit":"m.s-1","parameterCategory":1,"la1":30.2991,"la2":30.254,"lo1":-89.0895,"lo2":-89.0444,"dx":0.0017,"dy":0.0017,"nx":28,"ny":28,"refTime":"2022-12-07T03:00:00:Z","depth":0,"parameterNumber":3,"parameterNumberName":"V-component_of_WINDS"},"data":[0,0,0,0,0,0,0,0,0,0,0,0,0,0,0,0,0,0,0,0,0,0,0,0,0,0,0,0,0,0,0,0,0,0,0,0,0,0,0,0,0,0,0,0,0,0,0,0,0,0,0,0,0,0,0,0,0,0,1.5238,1.5237,0,1.5158,1.5157,1.5157,1.5172,1.5174,1.5175,1.5177,1.5089,1.5085,1.5081,0,0,0,0,0,0,0,0,0,0,0,0,0,1.5398,1.5395,1.5238,1.5237,1.5236,1.5159,1.5157,1.5156,1.5172,1.5174,1.5176,1.5177,1.509,1.5085,1.5081,0,0,0,0,0,0,0,0,0,0,0,0,0,1.5324,1.5394,1.5238,1.5235,1.5234,1.5159,1.5157,1.5156,1.5172,1.5174,1.5176,1.5178,1.5091,1.5086,1.508,1.5002,0,0,1.5063,1.5061,0,0,0,0,0,0,0,0,1.5328,1.5318,1.5236,1.5235,1.5234,1.5178,1.5182,1.5104,1.5171,1.5195,1.5177,1.5179,1.5116,1.5109,1.5089,1.4998,1.4994,1.5063,1.5059,1.5057,1.5055,0,0,0,0,0,0,0,1.5334,1.5322,1.5206,1.5235,1.5233,1.5235,1.5227,1.5167,1.5144,1.5193,1.5194,1.5185,1.5116,1.5094,1.5087,1.4992,1.5063,1.5058,1.5055,1.5052,1.4832,1.4829,0,0,0,0,0,0,1.5341,1.5326,1.5209,1.5204,1.5288,1.5231,1.5222,1.5193,1.5145,1.514,1.5183,1.5186,1.5102,1.5093,1.5083,1.4987,1.5057,1.5052,1.5049,1.4834,1.4831,1.4829,0,0,0,0,0,0,1.5344,1.533,1.5212,1.5265,1.525,1.5226,1.5194,1.5191,1.5169,1.5137,1.5132,1.5165,1.5104,1.5091,1.5022,1.4984,1.5049,1.5044,1.4837,1.4833,1.483,1.4794,0,0,0,0,0,0,1.5349,1.5331,1.5302,1.5265,1.5248,1.5154,1.5191,1.5187,1.516,1.5163,1.5119,1.5114,1.5104,1.503,1.5017,1.4978,1.504,1.484,1.4836,1.4831,1.4799,1.479,1.4782,0,0,0,0,0,1.5354,1.5294,1.5301,1.5287,1.5211,1.5151,1.5141,1.5133,1.5157,1.5127,1.5106,1.5115,1.4991,1.5023,1.5008,1.4967,1.4843,1.4837,1.4831,1.4802,1.4792,1.4782,0,0,0,0,0,0,1.5326,1.5289,1.5296,1.5223,1.519,1.5154,1.5116,1.5122,1.5081,1.5085,1.5075,1.5065,1.4994,1.4974,1.501,1.4888,1.492,1.4911,1.4903,1.4893,1.4885,1.489,1.5035,0,0,0,0,0,1.5312,1.5268,1.5238,1.5175,1.5159,1.5141,1.5114,1.5111,1.5076,1.5062,1.5036,1.5001,1.4953,1.4922,1.4877,1.4797,1.4786,1.4761,1.4753,1.4746,1.4737,1.4692,1.468,1.481,1.481,1.481,0,0,1.528,1.5255,1.5227,1.5169,1.5144,1.5097,1.5129,1.5078,1.5042,1.5053,1.4987,1.4967,1.4926,1.4851,1.4816,1.4831,1.47,1.4739,1.4734,1.4729,1.4685,1.4672,1.4661,1.4806,1.4807,1.4807,0,0,1.5199,1.5177,1.5122,1.5096,1.5059,1.5047,1.5034,1.4997,1.4985,1.4919,1.4926,1.4883,1.4802,1.4772,1.4747,1.4656,1.4662,1.4641,1.4597,1.4553,1.4542,1.4533,1.4499,1.4487,1.4633,1.4633,1.4633,0,1.5164,1.5096,1.5092,1.5041,1.5014,1.5025,1.4968,1.4943,1.4892,1.4872,1.4891,1.479,1.4763,1.468,1.4658,1.4638,1.4621,1.4645,1.4545,1.4535,1.4527,1.4493,1.4481,1.4631,1.4631,1.4631,1.4632,0,1.5054,1.5006,1.4966,1.4919,1.4888,1.4834,1.482,1.4789,1.4789,1.4775,1.4706,1.4675,1.4624,1.4604,1.4603,1.4521,1.4531,1.4548,1.4579,1.4512,1.448,1.4468,1.4628,1.4628,1.4629,1.463,0,0,1.4949,1.4902,1.4887,1.4866,1.4826,1.4787,1.4734,1.4686,1.4658,1.4623,1.4576,1.4508,1.4523,1.4494,1.449,1.4451,1.4379,1.4472,1.4471,1.4454,1.4284,1.4271,1.4256,1.4384,1.4382,1.438,1.4287,0,1.4863,1.477,1.4766,1.4681,1.4636,1.4646,1.4599,1.4568,1.4554,1.4512,1.4495,1.4447,1.4471,1.4454,1.4416,1.4396,1.4344,1.4403,1.4337,1.4335,1.4345,1.424,1.4225,1.4139,1.4275,1.4273,1.4271,0,1.4749,1.4712,1.4623,1.4589,1.457,1.4528,1.4483,1.4444,1.4409,1.4401,1.437,1.4371,1.4314,1.435,1.427,1.431,1.4283,1.4269,1.4265,1.4257,1.4297,1.4226,1.4112,1.4098,1.4252,1.4254,1.4255,0,1.4679,1.4607,1.4544,1.4526,1.4485,1.4455,1.4437,1.4404,1.4376,1.4336,1.4317,1.4271,1.4245,1.4208,1.4196,1.4224,1.4116,1.4152,1.4105,1.4105,1.4079,1.4081,1.3957,1.4067,1.4067,1.4067,1.4067,0,1.4581,1.4525,1.4513,1.4473,1.4411,1.4407,1.4344,1.4327,1.4299,1.4255,1.4261,1.422,1.4208,1.4164,1.4154,1.4088,1.4077,1.4067,1.4064,1.4065,1.4066,1.4045,1.405,1.4064,1.4064,1.4065,1.4066,0,1.4491,1.4481,1.4413,1.4381,1.4372,1.4327,1.4299,1.426,1.4248,1.4193,1.4179,1.4158,1.4107,1.4093,1.403,1.4023,1.3945,1.3949,1.3957,1.3956,1.391,1.3914,1.3766,1.3746,1.3872,1.387,1.387,0,1.4428,1.4386,1.4351,1.4323,1.4304,1.4259,1.4231,1.4225,1.4194,1.4152,1.4118,1.4068,1.4027,1.3944,1.3921,1.3873,1.3875,1.3827,1.3867,1.3869,1.3871,1.3873,1.3868,1.3818,1.3817,1.3815,1.3815,0,1.4316,1.4314,1.4274,1.4232,1.4198,1.4164,1.4131,1.4108,1.4097,1.4062,1.4011,1.398,1.3917,1.3866,1.3818,1.3797,1.3802,1.3803,1.3789,1.3787,1.3793,1.3787,1.3934,1.3805,1.3806,1.3807,1.3807,1.3808,1.4236,1.4199,1.4169,1.4123,1.4099,1.4069,1.4031,1.4015,1.3973,1.3923,1.3922,1.3865,1.3831,1.3767,1.3743,1.3697,1.3711,1.3692,1.3686,1.3681,1.3676,1.3803,1.3689,1.3689,1.3689,1.3689,1.369,0,1.4123,1.4105,1.4064,1.4019,1.3983,1.3996,1.396,1.3929,1.388,1.3848,1.3809,1.3749,1.37,1.3676,1.3626,1.3594,1.3596,1.3581,1.3582,1.3577,1.3668,1.3683,1.3581,1.3581,1.3581,1.3581,1.3581,1.3581,1.406,1.3997,1.3991,1.3916,1.3897,1.3844,1.3822,1.3793,1.3769,1.3702,1.3663,1.3648,1.3618,1.3568,1.3522,1.3516,1.3497,1.348,1.3475,1.356,1.357,1.3581,1.3596,1.3476,1.3476,1.3388,1.3387,1.3386]}]]